Weather History for KLPR - October, 2013

Change the Weather History Date:

Wednesday, October 2, 2013

  Actual Average (KCLE) Record (KCLE)
Temperature  
Mean Temperature 74 °F 58 °F  
Max Temperature 84 °F 67 °F 86 °F (1919)
Min Temperature 63 °F 50 °F 32 °F (1975)
Degree Days  
Heating Degree Days 0 7  
Month to date heating degree days 14  
Since 1 July heating degree days 117  
Cooling Degree Days 8 1  
Month to date cooling degree days 2  
Year to date cooling degree days 806  
Growing Degree Days 24 (Base 50)    
Moisture  
Dew Point 61 °F    
Average Humidity 69    
Maximum Humidity 81    
Minimum Humidity 51    
Precipitation  
Precipitation 0.00 in 0.10 in 1.04 in (1969)
Month to date precipitation 0.21  
Year to date precipitation 29.56  
Snow  
Snow 0.00 in 0.00 in - ()
Month to date snowfall 0.0  
Since 1 July snowfall 0.0  
Since 1 September snowfall 0.0  
Snow Depth -    
Sea Level Pressure  
Sea Level Pressure 30.06 in    
Wind  
Wind Speed 5 mph (WSW)    
Max Wind Speed 9 mph    
Max Gust Speed -    
Visibility 8 miles    
Events      
T = Trace of Precipitation, MM = Missing Value Source: NWS Daily Summary

Daily Weather History Graph

Daily Weather History Graph

Search for Another Location

Airport or City:

Trip Planner

Search our weather history database for the weather conditions in past years. The results will help you decide how hot, cold, wet, or windy it might be!

Date:

Astronomy

Oct. 02, 2013 Rise Set
Actual Time 7:26 AM EDT 7:08 PM EDT
Civil Twilight 6:59 AM EDT 7:35 PM EDT
Nautical Twilight 6:27 AM EDT 8:07 PM EDT
Astronomical Twilight 5:54 AM EDT 8:40 PM EDT
Moon 4:57 AM EDT (10/2) 5:44 PM EDT (10/2)
Length of Visible Light 12h 36m
Length of Day
11h 41m
Waning Crescent, 6% of the Moon is Illuminated
Oct 2
Waning Crescent
Oct 4
New
Oct 11
First Quarter
Oct 18
Full
Oct 26
Last Quarter

Hourly Weather History & Observations

Time (EDT) Temp. Heat Index Dew Point Humidity Pressure Visibility Wind Dir Wind Speed Gust Speed Precip Events Conditions
12:53 AM 63.0 °F - 55.9 °F 78% 30.01 in 9.0 mi SW 6.9 mph - N/A   Clear
1:53 AM 63.0 °F - 57.0 °F 81% 30.01 in 8.0 mi SW 5.8 mph - N/A   Clear
2:53 AM 63.0 °F - 57.0 °F 81% 30.02 in 7.0 mi SSW 5.8 mph - N/A   Clear
3:53 AM 64.0 °F - 57.0 °F 78% 30.01 in 7.0 mi SSW 4.6 mph - N/A   Clear
4:53 AM 64.9 °F - 57.9 °F 78% 30.02 in 8.0 mi SSW 4.6 mph - N/A   Clear
5:53 AM 66.0 °F - 60.1 °F 81% 30.03 in 7.0 mi Calm Calm - N/A   Mostly Cloudy
6:53 AM 66.9 °F - 60.1 °F 79% 30.03 in 6.0 mi WSW 4.6 mph - N/A   Haze
7:53 AM 66.9 °F - 60.1 °F 79% 30.06 in 4.0 mi WSW 4.6 mph - N/A   Haze
8:53 AM 70.0 °F - 62.1 °F 76% 30.07 in 5.0 mi WSW 5.8 mph - N/A   Haze
9:53 AM 73.9 °F - 63.0 °F 68% 30.08 in 6.0 mi WNW 9.2 mph - N/A   Haze
10:44 AM 75.2 °F - 62.6 °F 65% 30.10 in 7.0 mi West 3.5 mph - N/A   Overcast
10:53 AM 75.0 °F - 63.0 °F 66% 30.10 in 7.0 mi Variable 4.6 mph - N/A   Overcast
11:18 AM 75.2 °F - 62.6 °F 65% 30.10 in 7.0 mi Variable 4.6 mph - N/A   Overcast
11:53 AM 78.1 °F - 63.0 °F 60% 30.09 in 8.0 mi WSW 4.6 mph - N/A   Overcast
12:00 PM 77.0 °F - 62.6 °F 61% 30.10 in 8.0 mi Calm Calm - N/A   Mostly Cloudy
12:53 PM 82.0 °F 83.4 °F 64.0 °F 54% 30.07 in 9.0 mi SW 4.6 mph - N/A   Partly Cloudy
1:53 PM 84.0 °F 85.4 °F 64.0 °F 51% 30.07 in 9.0 mi Variable 4.6 mph - N/A   Clear
2:53 PM 82.9 °F 84.4 °F 64.0 °F 53% 30.06 in 9.0 mi North 5.8 mph - N/A   Partly Cloudy
3:53 PM 82.9 °F 84.4 °F 64.0 °F 53% 30.05 in 10.0 mi Variable 5.8 mph - N/A   Clear
4:53 PM 82.0 °F 83.1 °F 63.0 °F 52% 30.05 in 9.0 mi NNE 6.9 mph - N/A   Clear
5:53 PM 80.1 °F 81.1 °F 61.0 °F 52% 30.04 in 10.0 mi North 4.6 mph - N/A   Clear
6:53 PM 73.0 °F - 60.1 °F 64% 30.06 in 10.0 mi NNE 4.6 mph - N/A   Clear
7:53 PM 66.9 °F - 59.0 °F 76% 30.07 in 10.0 mi Calm Calm - N/A   Clear
8:53 PM 64.9 °F - 57.9 °F 78% 30.07 in 10.0 mi Calm Calm - N/A   Clear
9:53 PM 64.0 °F - 57.9 °F 80% 30.07 in 8.0 mi Calm Calm - N/A   Clear
10:53 PM 64.0 °F - 57.9 °F 80% 30.07 in 9.0 mi Calm Calm - N/A   Clear
11:53 PM 66.0 °F - 59.0 °F 78% 30.08 in 6.0 mi Calm Calm - N/A   Haze